TimeCST,TemperatureF,Dew PointF,Humidity,Sea Level PressureIn,VisibilityMPH,Wind Direction,Wind SpeedMPH,Gust SpeedMPH,PrecipitationIn,Events,Conditions,WindDirDegrees,DateUTC
12:53 AM,-0.0,-9.9,63,30.21,10.0,Calm,Calm,-,N/A,,Mostly Cloudy,0,2012-01-20 06:53:00
1:53 AM,-0.0,-9.0,66,30.21,10.0,Calm,Calm,-,N/A,,Mostly Cloudy,0,2012-01-20 07:53:00
2:53 AM,1.9,-9.0,60,30.20,10.0,Calm,Calm,-,N/A,,Overcast,0,2012-01-20 08:53:00
3:53 AM,3.0,-9.0,57,30.17,10.0,ESE,3.5,-,N/A,,Overcast,120,2012-01-20 09:53:00
4:53 AM,3.9,-9.0,55,30.18,10.0,ESE,3.5,-,N/A,,Overcast,120,2012-01-20 10:53:00
5:31 AM,3.2,-5.8,66,30.11,2.0,East,3.5,-,0.00,Snow,Light Snow,100,2012-01-20 11:31:00
5:38 AM,3.2,-5.8,66,30.11,1.2,ESE,4.6,-,0.00,Snow,Light Snow,110,2012-01-20 11:38:00
5:53 AM,3.0,-2.9,76,30.19,1.2,ESE,3.5,-,0.00,Snow,Light Snow,120,2012-01-20 11:53:00
6:53 AM,3.9,-2.0,76,30.19,1.2,East,5.8,-,0.01,Snow,Light Snow,100,2012-01-20 12:53:00
7:53 AM,3.9,-0.9,80,30.18,1.5,East,4.6,-,0.01,Snow,Light Snow,80,2012-01-20 13:53:00
8:53 AM,3.9,-0.9,80,30.18,1.5,East,5.8,-,0.01,Snow,Light Snow,100,2012-01-20 14:53:00
9:00 AM,5.0,-0.4,78,30.12,0.8,East,6.9,-,0.00,Snow,Light Snow,80,2012-01-20 15:00:00
9:53 AM,5.0,-0.0,80,30.20,0.8,East,4.6,-,0.01,Snow,Light Snow,100,2012-01-20 15:53:00
10:28 AM,5.0,-0.4,78,30.14,1.0,ESE,6.9,-,0.00,Snow,Light Snow,110,2012-01-20 16:28:00
10:38 AM,5.0,-0.4,78,30.14,0.8,ESE,5.8,-,0.00,Snow,Light Snow,110,2012-01-20 16:38:00
10:53 AM,6.1,-0.0,76,30.23,0.8,ESE,4.6,-,0.01,Snow,Light Snow,110,2012-01-20 16:53:00
11:18 AM,6.8,1.4,79,30.16,1.0,SE,5.8,-,0.00,Snow,Light Snow,140,2012-01-20 17:18:00
11:49 AM,6.8,-0.4,72,30.15,2.0,SE,5.8,-,0.00,Snow,Light Snow,140,2012-01-20 17:49:00
11:53 AM,7.0,1.0,77,30.23,2.5,SSE,3.5,-,0.00,Snow,Light Snow,150,2012-01-20 17:53:00
12:02 PM,8.6,1.4,73,30.15,3.0,South,4.6,-,0.00,Snow,Light Snow,170,2012-01-20 18:02:00
12:53 PM,9.0,1.9,73,30.21,7.0,South,3.5,-,0.00,Snow,Light Snow,170,2012-01-20 18:53:00
1:38 PM,10.4,1.4,67,30.13,3.0,East,3.5,-,0.00,Snow,Light Snow,80,2012-01-20 19:38:00
1:48 PM,10.4,1.4,67,30.13,3.0,Calm,Calm,-,0.00,Snow,Light Snow,0,2012-01-20 19:48:00
1:53 PM,10.0,1.9,70,30.20,3.0,Calm,Calm,-,0.00,,Haze,0,2012-01-20 19:53:00
2:53 PM,10.9,3.0,70,30.19,10.0,ENE,3.5,-,N/A,,Overcast,60,2012-01-20 20:53:00
3:53 PM,10.9,1.9,67,30.20,10.0,Calm,Calm,-,N/A,,Overcast,0,2012-01-20 21:53:00
5:53 PM,10.0,1.9,70,30.24,10.0,North,4.6,-,N/A,,Overcast,10,2012-01-20 23:53:00
6:53 PM,9.0,1.9,73,30.25,10.0,North,3.5,-,N/A,,Mostly Cloudy,360,2012-01-21 00:53:00
7:53 PM,8.1,1.9,76,30.26,10.0,Calm,Calm,-,N/A,,Mostly Cloudy,0,2012-01-21 01:53:00
8:53 PM,7.0,1.9,80,30.28,10.0,NNW,3.5,-,N/A,,Partly Cloudy,340,2012-01-21 02:53:00
9:53 PM,5.0,1.0,84,30.28,10.0,WNW,3.5,-,N/A,,Clear,290,2012-01-21 03:53:00
10:53 PM,5.0,-0.0,80,30.27,10.0,Calm,Calm,-,N/A,,Clear,0,2012-01-21 04:53:00
11:53 PM,3.0,-0.9,84,30.30,10.0,Calm,Calm,-,N/A,,Clear,0,2012-01-21 05:53:00